Location: New Plymouth
(39.0670°S, 174.0830°E)
Time: 03:19:48
(UTC+12:00)

NOAA 19 - Pass Details

Date: 26 August 2019
Orbit: 840 x 862 km, 99.2° (Epoch: 22 September)

Event Time Altitude Azimuth Distance (km) Brightness Sun altitude
Rises 03:58:31 0° 45° (NE) 3,392 8.7 -35.0°
Reaches altitude 10° 04:01:07 10° 55° (NE) 2,466 8.0 -34.6°
Maximum altitude 04:05:47 30° 114° (ESE) 1,491 6.9 -33.7°
Drops below altitude 10° 04:10:31 10° 173° (S) 2,499 7.8 -32.8°
Sets 04:13:10 0° 183° (S) 3,445 8.5 -32.3°
